Location: Bergnershof
(48.9468°N, 10.9431°E)
Time: 11:37:49
(UTC+00:00)

Cosmos 2322 Rocket - Pass Details

Date: 03 March 2021
Orbit: 832 x 852 km, 71.0° (Epoch: 13 April)

Event Time Altitude Azimuth Distance (km) Brightness Sun altitude
Rises 19:08:05 0° 231° (SW) 3,368 5.8 -21.2°
Reaches altitude 10° 19:10:39 10° 239° (WSW) 2,438 5.2 -21.6°
Maximum altitude 19:15:53 40° 308° (NW) 1,219 3.5 -22.4°
Drops below altitude 10° 19:21:10 10° 18° (NNE) 2,459 4.6 -23.2°
Sets 19:23:48 0° 26° (NNE) 3,400 5.3 -23.7°
